Location: Eaton Estates
(41.3089°N, 82.0057°W)
Time: 16:53:37
(UTC+00:00)

Cosmos 1602 Rocket - Pass Details

Date: 17 June 2021
Orbit: 602 x 634 km, 82.5° (Epoch: 01 August)

Event Time Altitude Azimuth Distance (km) Brightness Sun altitude
Exits shadow 05:18:25 49° 76° (ENE) 819 4.1 -25.3°
Drops below altitude 10° 05:22:25 10° 18° (NNE) 2,027 7.1 -25.3°
Sets 05:24:43 0° 14° (NNE) 2,939 8.3 -25.3°
